Bangkok (Suvarnabhumi), Thailand

8:04 AM +07 on April 27, 2017 (GMT +0700)
Bangkok (Suvarnabhumi)

Weather History for VTBS - November, 2011

Change the Weather History Date:

Tuesday, November 1, 2011

  Actual Average (VTBU) Record (VTBU)
Temperature  
Mean Temperature 86 °F -  
Max Temperature 94 °F 89 °F 93 °F (2003)
Min Temperature 77 °F 72 °F 35 °F (2007)
Cooling Degree Days 20    
Growing Degree Days 36 (Base 50)    
Moisture  
Dew Point 71 °F    
Average Humidity 63    
Maximum Humidity 84    
Minimum Humidity 39    
Precipitation  
Precipitation 0.00 in 0.08 in - ()
Sea Level Pressure  
Sea Level Pressure 29.83 in    
Wind  
Wind Speed 5 mph ()    
Max Wind Speed 12 mph    
Max Gust Speed -    
Visibility 6.2 miles    
Events      
Averages and records for this station are not official NWS values.
T = Trace of Precipitation, MM = Missing Value Source: Averaged Metar Reports

Daily Weather History Graph

Daily Weather History Graph

Search for Another Location

Airport or City:

Trip Planner

Search our weather history database for the weather conditions in past years. The results will help you decide how hot, cold, wet, or windy it might be!

Date:

Astronomy

Nov. 01, 2011 Rise Set
Actual Time 6:09 AM +07 5:49 PM +07
Civil Twilight 5:48 AM +07 6:11 PM +07
Nautical Twilight 5:22 AM +07 6:36 PM +07
Astronomical Twilight 4:57 AM +07 7:01 PM +07
Moon 11:20 AM +07 (11/1) 11:08 PM +07 (11/1)
Length of Visible Light 12h 23m
Length of Day
11h 39m
Waxing Crescent, 35% of the Moon is Illuminated
Nov 1
Waxing Crescent
Nov 2
First Quarter
Nov 11
Full
Nov 18
Last Quarter
Nov 25
New

Hourly Weather History & Observations

Time (+07) Temp. Heat Index Dew Point Humidity Pressure Visibility Wind Dir Wind Speed Gust Speed Precip Events Conditions
12:00 AM 82.4 °F 88.2 °F 73.4 °F 74% 29.86 in 6.2 mi ENE 4.6 mph - N/A   Scattered Clouds
12:30 AM 80.6 °F 85.4 °F 73.4 °F 79% 29.86 in 6.2 mi NE 3.5 mph - N/A   Scattered Clouds
1:00 AM 81 °F - 74 °F 74% 29.83 in 6 mi Calm Calm - -  
1:00 AM 82.4 °F 88.2 °F 73.4 °F 74% 29.83 in 6.2 mi ENE 3.5 mph - N/A   Scattered Clouds
1:30 AM 80.6 °F 85.4 °F 73.4 °F 79% 29.83 in 6.2 mi NE 3.5 mph - N/A   Scattered Clouds
2:00 AM 80.6 °F 85.4 °F 73.4 °F 79% 29.83 in 6.2 mi NE 2.3 mph - N/A   Scattered Clouds
2:30 AM 80.6 °F 84.6 °F 71.6 °F 74% 29.83 in 6.2 mi ENE 6.9 mph - N/A   Scattered Clouds
3:00 AM 80.6 °F 84.6 °F 71.6 °F 74% 29.83 in 6.2 mi NE 6.9 mph - N/A   Scattered Clouds
3:30 AM 80.6 °F 84.6 °F 71.6 °F 74% 29.83 in 6.2 mi NE 5.8 mph - N/A   Scattered Clouds
4:00 AM 80.6 °F 84.6 °F 71.6 °F 74% 29.83 in 6.2 mi NE 4.6 mph - N/A   Scattered Clouds
4:30 AM 80.6 °F 84.6 °F 71.6 °F 74% 29.83 in 6.2 mi NE 5.8 mph - N/A   Scattered Clouds
5:00 AM 80.6 °F 84.6 °F 71.6 °F 74% 29.83 in 6.2 mi NE 6.9 mph - N/A   Scattered Clouds
5:30 AM 80.6 °F 83.9 °F 69.8 °F 70% 29.83 in 6.2 mi NE 8.1 mph - N/A   Scattered Clouds
6:00 AM 80.6 °F 83.9 °F 69.8 °F 70% 29.86 in 6.2 mi ENE 5.8 mph - N/A   Scattered Clouds
6:30 AM 80.6 °F 84.6 °F 71.6 °F 74% 29.86 in 6.2 mi ENE 8.1 mph - N/A   Scattered Clouds
7:00 AM 78 °F - 74 °F 84% 29.85 in 6 mi ENE 6.9 mph - -  
7:00 AM 80.6 °F 84.6 °F 71.6 °F 74% 29.86 in 6.2 mi NE 5.8 mph - N/A   Scattered Clouds
7:30 AM 82.4 °F 87.2 °F 71.6 °F 70% 29.89 in 6.2 mi NE 6.9 mph - N/A   Scattered Clouds
8:00 AM 82.4 °F 85.4 °F 68.0 °F 62% 29.89 in 6.2 mi NE 10.4 mph - N/A   Scattered Clouds
8:30 AM 84.2 °F 88.4 °F 69.8 °F 62% 29.89 in - ENE 11.5 mph - N/A   Clear
9:00 AM 84.2 °F 87.3 °F 68.0 °F 58% 29.89 in - ENE 8.1 mph - N/A   Clear
9:30 AM 86.0 °F 90.4 °F 69.8 °F 58% 29.89 in - NE 8.1 mph - N/A   Clear
10:00 AM 86.0 °F 90.4 °F 69.8 °F 58% 29.89 in - ENE 8.1 mph - N/A   Clear
10:30 AM 87.8 °F 92.6 °F 69.8 °F 55% 29.89 in - NE 8.1 mph - N/A   Clear
11:00 AM 87.8 °F 92.6 °F 69.8 °F 55% 29.89 in 6.2 mi NE 8.1 mph - N/A   Scattered Clouds
11:30 AM 87.8 °F 91.4 °F 68.0 °F 52% 29.86 in 6.2 mi NE 6.9 mph - N/A   Scattered Clouds
12:00 PM 89.6 °F 93.4 °F 68.0 °F 49% 29.86 in 6.2 mi NE 9.2 mph - N/A   Scattered Clouds
12:30 PM 91.4 °F 98.4 °F 71.6 °F 52% 29.83 in 6.2 mi NE 8.1 mph - N/A   Scattered Clouds
1:00 PM 93 °F - 71 °F 39% 29.80 in 7 mi NNE 6.9 mph - -   Scattered Clouds
1:00 PM 89.6 °F 94.7 °F 69.8 °F 52% 29.80 in 6.2 mi ENE 8.1 mph - N/A   Scattered Clouds
1:30 PM 91.4 °F 96.8 °F 69.8 °F 49% 29.80 in 6.2 mi NE 8.1 mph - N/A   Scattered Clouds
2:00 PM 91.4 °F 95.4 °F 68.0 °F 46% 29.77 in 6.2 mi ENE 9.2 mph - N/A   Scattered Clouds
2:30 PM 89.6 °F 93.4 °F 68.0 °F 49% 29.77 in 6.2 mi NE 9.2 mph - N/A   Scattered Clouds
3:00 PM 89.6 °F 94.7 °F 69.8 °F 52% 29.77 in 6.2 mi NE 8.1 mph - N/A   Scattered Clouds
3:30 PM 89.6 °F 93.4 °F 68.0 °F 49% 29.77 in 6.2 mi NE 6.9 mph - N/A   Scattered Clouds
4:00 PM 89.6 °F 93.4 °F 68.0 °F 49% 29.77 in 6.2 mi NNE 6.9 mph - N/A   Scattered Clouds
4:30 PM 89.6 °F 94.7 °F 69.8 °F 52% 29.77 in 6.2 mi NE 8.1 mph - N/A   Scattered Clouds
5:00 PM 87.8 °F 91.4 °F 68.0 °F 52% 29.77 in 6.2 mi ENE 6.9 mph - N/A   Scattered Clouds
5:30 PM 87.8 °F 92.6 °F 69.8 °F 55% 29.77 in 6.2 mi NE 4.6 mph - N/A   Scattered Clouds
6:00 PM 86.0 °F 90.4 °F 69.8 °F 58% 29.77 in 6.2 mi NE 4.6 mph - N/A   Scattered Clouds
6:30 PM 84.2 °F 89.6 °F 71.6 °F 66% 29.77 in 6.2 mi NNE 4.6 mph - N/A   Scattered Clouds
7:00 PM 87 °F - 74 °F 56% 29.78 in 7 mi Calm Calm - -   Scattered Clouds
7:00 PM 84.2 °F 89.6 °F 71.6 °F 66% 29.80 in 6.2 mi NNE 4.6 mph - N/A   Scattered Clouds
7:30 PM 84.2 °F 89.6 °F 71.6 °F 66% 29.80 in 6.2 mi NE 4.6 mph - N/A   Scattered Clouds
8:00 PM 84.2 °F 88.4 °F 69.8 °F 62% 29.83 in 6.2 mi NNE 3.5 mph - N/A   Scattered Clouds
8:30 PM 84.2 °F 89.6 °F 71.6 °F 66% 29.83 in 6.2 mi NE 2.3 mph - N/A   Scattered Clouds
9:00 PM 84.2 °F 89.6 °F 71.6 °F 66% 29.83 in 6.2 mi NNE 3.5 mph - N/A   Scattered Clouds
9:30 PM 84.2 °F 89.6 °F 71.6 °F 66% 29.83 in 6.2 mi NNE 3.5 mph - N/A   Scattered Clouds
10:00 PM 84.2 °F 89.6 °F 71.6 °F 66% 29.83 in 6.2 mi NE 6.9 mph - N/A   Scattered Clouds
10:30 PM 84.2 °F 89.6 °F 71.6 °F 66% 29.83 in 6.2 mi ENE 6.9 mph - N/A   Scattered Clouds
11:00 PM 84.2 °F 88.4 °F 69.8 °F 62% 29.83 in 6.2 mi NE 8.1 mph - N/A   Scattered Clouds
11:30 PM 84.2 °F 88.4 °F 69.8 °F 62% 29.83 in 6.2 mi NE 8.1 mph - N/A   Scattered Clouds